This is the latest recevied weather packets stored in our database for station/object W4NRG-1. If no packets are shown the sender has not sent any weather packets the latest 10 day(s).
| Time | Temp. | Humidity | Pressure | Rain* | Wind** | Luminosity | Snow |
|---|---|---|---|---|---|---|---|
| 1777672961 | 18.33° C | 43% | 1012.6 hPa | 0 mm | - | - | - |
| 1777672659 | 18.33° C | 43% | 1012.6 hPa | 0 mm | - | - | - |
| 1777671750 | 18.33° C | 40% | 1012.7 hPa | 0 mm | - | - | - |
| 1777671447 | 18.89° C | 40% | 1012.8 hPa | 0 mm | - | - | - |
| 1777671143 | 18.89° C | 41% | 1012.6 hPa | 0 mm | - | - | - |
| 1777670839 | 19.44° C | 40% | 1012.6 hPa | 0 mm | - | - | - |
| 1777670536 | 19.44° C | 40% | 1012.5 hPa | 0 mm | - | - | - |
| 1777670233 | 19.44° C | 36% | 1012.7 hPa | 0 mm | - | - | - |
| 1777669627 | 20° C | 36% | 1012.8 hPa | 0 mm | - | - | - |
| 1777669324 | 19.44° C | 38% | 1012.7 hPa | 0 mm | - | - | - |
| 1777669020 | 19.44° C | 37% | 1012.7 hPa | 0 mm | - | - | - |
| 1777668414 | 19.44° C | 37% | 1012.8 hPa | 0 mm | - | - | - |
| 1777668110 | 19.44° C | 39% | 1013 hPa | 0 mm | - | - | - |
| 1777667806 | 19.44° C | 38% | 1012.8 hPa | 0 mm | - | - | - |
| 1777667505 | 20° C | 39% | 1013 hPa | 0 mm | - | - | - |
| 1777667201 | 20° C | 39% | 1013 hPa | 0 mm | - | - | - |
| 1777666898 | 19.44° C | 40% | 1013.3 hPa | 0 mm | - | - | - |
| 1777666595 | 18.89° C | 42% | 1013.4 hPa | 0 mm | - | - | - |
| 1777666291 | 19.44° C | 39% | 1013.5 hPa | 0 mm | - | - | - |
| 1777665988 | 19.44° C | 39% | 1013.3 hPa | 0 mm | - | - | - |
| 1777665686 | 19.44° C | 37% | 1013.5 hPa | 0 mm | - | - | - |
| 1777665383 | 19.44° C | 39% | 1013.4 hPa | 0 mm | - | - | - |
| 1777665079 | 18.89° C | 37% | 1013.8 hPa | 0 mm | - | - | - |
| 1777664774 | 19.44° C | 39% | 1013.8 hPa | 0 mm | - | - | - |
| 1777640816 | - | - | - | 0 mm | - | - | - |
* Rain latest hour (hover to see other rain measurements)
** Current wind speed in m/s (hover to see current wind gust speed)